Location: Gilevgi
(36.8751°N, 30.0581°E)
Time: 21:23:08
(UTC+00:00)

CZ-2D R/B - Pass Details

Date: 11 December 2025
Orbit: 524 x 598 km, 98.0° (Epoch: 12 January)

Event Time Altitude Azimuth Distance (km) Brightness Sun altitude
Rises 15:51:15 0° 147° (SSE) 2,829 6.8 -13.2°
Reaches altitude 10° 15:53:33 10° 138° (SE) 1,929 5.9 -13.7°
Maximum altitude 15:57:22 35° 72° (ENE) 959 4.0 -14.4°
Drops below altitude 10° 16:01:11 10° 6° (N) 1,920 5.8 -15.1°
Sets 16:03:27 0° 358° (N) 2,814 6.8 -15.5°
